• Join FlightAware (Why Join?)
  • Login
  • US Flag 
05:04AM EST


 

Airport Tracker/Info


-or-


 

Live Flight TrackerFlight Track Log ✈ UPS1121 ✈ 16-May-2013 ✈ KALB - KBDL

Flight Track Log - Related Links

Times and Time Zones

All times are in EDT time to prevent confusion due to time zone crossing. See the UPS1121 flight status page for this flight to view local times or setup timezone preferences in your user account.

Time Position Orientation Groundspeed Altitude Reporting Facility
EDT Latitude Longitude Course Direction KTS MPH feet Rate Location/Type
08:38PM 42.7483 -73.8197 232° Southwest 141 162 2,000  Level Boston Center
08:39PM 42.7228 -73.8644 232° Southwest 204 235 3,300 2,149 Climbing Boston Center
08:40PM 42.6633 -73.7869 136° Southeast 288 331 6,800 2,977 Climbing Boston Center
08:41PM 42.6083 -73.6728 123° Southeast 319 367 9,900 1,600 Climbing Boston Center
08:42PM 42.5633 -73.5844 125° Southeast 325 374 10,000 141 Climbing Boston Center
08:42PM 42.5347 -73.5361 129° Southeast 323 372 10,100 806 Climbing Boston Center
08:43PM 42.4981 -73.4594 123° Southeast 346 398 10,900 632 Climbing Boston Center
08:44PM 42.4425 -73.3769 132° Southeast 351 404 11,100 53 Climbing Boston Center
08:45PM 42.3808 -73.2553 124° Southeast 363 418 11,000 -50 Descending Boston Center
08:46PM 42.3544 -73.1369 107° East 357 411 11,000 -250 Level Boston Center
08:47PM 42.3261 -72.9878 104° East 367 422 10,500 -532 Descending Boston Center
08:48PM 42.2683 -72.8750 125° Southeast 328 377 9,900 -1,008 Descending Boston Center
08:49PM 42.2228 -72.7989 129° Southeast 311 358 8,500 -1,655 Descending Boston Center
08:50PM 42.1603 -72.7089 133° Southeast 300 345 6,700 -1,636 Descending Boston Center
08:51PM 42.0939 -72.6414 143° Southeast 294 338 5,200 -1,488 Descending Boston Center
08:52PM 42.0253 -72.5911 151° Southeast 286 329 3,700 -1,219 Descending Boston Center
08:53PM 41.9461 -72.5489 158° South 263 303 2,600 -709 Descending Boston Center
08:54PM 41.8981 -72.5908 213° Southwest 204 235 2,200 -709 Descending Boston Center
08:55PM 41.8939 -72.6325 262° West 140 161 1,100 -836 Descending Boston Center
08:56PM 41.9125 -72.6606 312° West 115 132 500 -655 Descending Boston Center